GW4605 Weather Reports


time (UTC)temp
F
wind
direction
speed
knots
gust
knots
rain 1hr
in
rain 24hr
in
rain mn
in
humidity
%
barometer
mb
20260507023234 53 76 0.0 0.0 0.00 0.75 0.75 96 1015.0
20260507022731 53 160 0.0 0.0 0.00 0.75 0.75 96 1014.9
20260507022227 53 160 0.0 0.0 0.00 0.75 0.75 96 1014.9
20260507021724 53 160 0.0 0.0 0.00 0.75 0.75 96 1014.8
20260507021219 53 160 0.0 0.0 0.00 0.75 0.75 96 1014.7
20260507020718 53 161 0.0 0.0 0.00 0.75 0.75 96 1014.7
20260507020213 53 70 0.0 0.0 0.00 0.75 0.75 96 1015.0
20260507015712 53 97 0.0 0.0 0.00 0.75 0.75 96 1014.8
20260507015209 53 97 0.0 0.0 0.00 0.75 0.75 95 1014.6
20260507014705 53 96 0.0 0.0 0.00 0.75 0.75 95 1014.8
20260507014201 53 96 0.0 0.0 0.00 0.75 0.75 95 1014.6
20260507013658 53 96 0.0 0.0 0.00 0.75 0.75 95 1014.4
20260507013155 53 95 0.0 0.0 0.00 0.75 0.75 95 1014.6
20260507012653 53 95 0.0 0.0 0.00 0.75 0.75 95 1014.4
20260507012148 53 95 0.0 0.0 0.00 0.75 0.75 95 1014.1
20260507011646 53 122 0.0 0.0 0.00 0.75 0.75 95 1014.1
20260507011142 53 165 0.0 0.0 0.00 0.75 0.75 95 1014.3
20260507010637 53 165 0.0 0.0 0.00 0.75 0.75 94 1014.0
20260507010133 54 229 0.0 0.0 0.00 0.75 0.75 94 1013.8
20260507005631 54 46 0.0 0.0 0.00 0.75 0.75 94 1014.3
20260507005127 54 46 0.0 0.0 0.00 0.75 0.75 94 1014.4
20260507004624 54 46 0.0 0.0 0.00 0.75 0.75 93 1014.3
20260507004122 54 46 0.0 0.0 0.00 0.75 0.75 93 1014.0
20260507003617 54 44 0.0 0.0 0.00 0.75 0.75 93 1013.9
20260507003112 55 240 0.0 0.0 0.00 0.75 0.75 93 1013.5
20260507002609 55 240 0.0 0.0 0.00 0.75 0.75 93 1013.7
20260507002105 55 240 0.0 0.0 0.00 0.75 0.75 92 1013.6
20260507001602 55 240 0.0 0.0 0.00 0.75 0.75 92 1013.7
20260507001059 55 240 0.0 0.0 0.00 0.75 0.75 92 1013.8
20260507000555 55 240 0.0 0.0 0.00 0.75 0.75 92 1013.8
20260507000051 55 240 0.0 0.0 0.00 0.75 0.75 91 1013.7
20260506235549 55 240 0.0 0.0 0.00 0.75 0.75 91 1013.7
20260506235044 55 240 0.0 0.0 0.00 0.75 0.75 91 1013.5
20260506234542 55 240 0.0 0.0 0.00 0.75 0.75 91 1013.8
20260506234039 56 211 0.0 0.0 0.00 0.75 0.75 90 1013.6
20260506233536 56 211 0.0 0.0 0.00 0.75 0.75 90 1013.9
20260506233033 57 211 0.0 0.0 0.00 0.75 0.75 89 1014.1
20260506232529 57 211 0.0 0.0 0.00 0.75 0.75 89 1014.0
20260506232024 57 211 0.0 0.0 0.00 0.75 0.75 89 1013.9
20260506231522 57 211 0.0 0.0 0.00 0.75 0.75 87 1013.8
20260506231020 57 212 0.0 0.0 0.00 0.75 0.75 85 1013.8
20260506230516 58 212 0.0 0.0 0.00 0.75 0.75 84 1013.8
20260506230014 57 209 0.0 0.0 0.00 0.75 0.75 81 1013.8
20260506225510 57 208 0.0 0.0 0.00 0.75 0.75 80 1013.9
20260506225007 58 106 0.9 0.9 0.00 0.75 0.75 79 1013.7
20260506224503 58 127 0.0 0.0 0.00 0.75 0.75 79 1013.8
20260506224000 58 139 0.0 0.9 0.00 0.75 0.75 79 1013.4
20260506223456 58 70 0.0 0.0 0.00 0.75 0.75 78 1014.0
20260506222953 58 89 0.0 0.0 0.00 0.75 0.75 80 1013.8
20260506222450 58 115 0.0 0.9 0.00 0.75 0.75 80 1013.6
20260506221946 58 115 0.0 0.9 0.00 0.75 0.75 80 1013.6
20260506221443 58 161 0.0 0.9 0.00 0.75 0.75 80 1013.5
20260506220941 58 205 0.9 1.7 0.00 0.75 0.75 80 1013.7
20260506220437 57 200 0.0 0.9 0.00 0.75 0.75 80 1013.3
20260506215933 57 198 0.0 1.7 0.00 0.75 0.75 80 1013.5
20260506215430 57 157 0.0 0.9 0.00 0.75 0.75 81 1013.4
20260506214925 57 207 0.0 1.7 0.00 0.75 0.75 80 1013.5
20260506214423 57 96 0.0 2.6 0.00 0.75 0.75 80 1013.5
20260506213920 57 172 0.0 3.5 0.00 0.75 0.75 79 1013.5
20260506213418 58 201 0.9 1.7 0.00 0.75 0.75 81 1013.3
20260506212915 58 143 0.0 2.6 0.00 0.75 0.75 79 1013.4
20260506212411 58 144 1.7 3.5 0.00 0.75 0.75 78 1013.2
20260506211906 58 75 0.0 1.7 0.00 0.75 0.75 75 1013.1
20260506211402 58 67 1.7 3.5 0.00 0.75 0.75 77 1013.1
20260506210859 58 65 2.6 2.6 0.00 0.75 0.75 77 1012.9
20260506210356 58 69 0.9 1.7 0.00 0.75 0.75 77 1013.0
20260506205853 58 40 0.0 3.5 0.00 0.75 0.75 77 1013.3
20260506205349 58 81 0.9 1.7 0.00 0.75 0.75 78 1013.0
20260506204846 58 206 1.7 1.7 0.00 0.75 0.75 80 1013.0
20260506204344 58 126 2.6 3.5 0.00 0.75 0.75 79 1013.0
20260506203841 59 72 2.6 3.5 0.00 0.75 0.75 78 1012.9
20260506203338 59 82 0.9 1.7 0.00 0.75 0.75 77 1012.7
20260506202835 58 218 1.7 3.5 0.00 0.75 0.75 79 1012.6
20260506202332 60 95 0.9 2.6 0.00 0.75 0.75 78 1012.8
20260506201828 59 59 0.0 1.7 0.00 0.75 0.75 79 1012.3
20260506201326 58 71 1.7 2.6 0.00 0.75 0.75 81 1012.7
20260506200822 58 108 1.7 2.6 0.00 0.75 0.75 80 1012.6
20260506200318 58 62 1.7 2.6 0.00 0.75 0.75 79 1012.7
20260506195814 58 73 1.7 2.6 0.00 0.75 0.75 80 1012.5
20260506195312 58 100 2.6 2.6 0.00 0.75 0.75 81 1012.7
20260506194809 58 128 0.9 2.6 0.00 0.75 0.75 82 1012.9
20260506194305 57 89 0.9 1.7 0.00 0.75 0.75 84 1012.6
20260506193803 56 98 0.9 0.9 0.00 0.75 0.75 84 1012.9
20260506193259 56 178 0.9 5.2 0.00 0.75 0.75 84 1013.0
20260506192756 57 158 0.9 2.6 0.00 0.75 0.75 83 1012.6
20260506192253 58 120 0.9 2.6 0.00 0.75 0.75 82 1012.7
20260506191750 58 107 0.9 1.7 0.00 0.75 0.75 82 1012.8
20260506191246 58 31 1.7 2.6 0.00 0.75 0.75 82 1012.8
20260506190743 58 127 1.7 3.5 0.00 0.75 0.75 82 1012.6
20260506190234 57 64 3.5 5.2 0.00 0.75 0.75 83 1012.5
20260506185732 57 115 1.7 3.5 0.00 0.75 0.75 84 1012.8
20260506185228 56 90 2.6 5.2 0.00 0.75 0.75 84 1012.8
20260506184725 56 48 2.6 5.2 0.00 0.75 0.75 82 1012.7
20260506184222 57 114 1.7 3.5 0.00 0.75 0.75 85 1012.6
20260506183719 57 127 2.6 3.5 0.00 0.75 0.75 85 1012.8
20260506183215 57 203 1.7 5.2 0.00 0.75 0.75 85 1013.0
20260506182712 56 117 1.7 5.2 0.00 0.75 0.75 85 1012.8
20260506182209 56 110 1.7 2.6 0.00 0.75 0.75 87 1013.1
20260506181707 55 69 2.6 7.8 0.00 0.75 0.75 88 1012.8
20260506181204 56 156 1.7 3.5 0.00 0.75 0.75 86 1013.1
20260506180702 56 60 3.5 5.2 0.00 0.75 0.75 86 1012.9
20260506180157 56 113 3.5 3.5 0.00 0.75 0.75 87 1013.0
20260506175654 55 79 3.5 5.2 0.00 0.75 0.75 88 1012.9
20260506175150 55 63 3.5 5.2 0.00 0.75 0.75 88 1012.7
20260506174648 55 82 2.6 6.1 0.00 0.75 0.75 88 1012.9
20260506174145 55 124 1.7 3.5 0.00 0.75 0.75 89 1012.8
20260506173643 55 128 2.6 3.5 0.00 0.75 0.75 90 1013.0
20260506173140 54 113 3.5 5.2 0.00 0.75 0.75 91 1012.9
20260506172637 54 74 3.5 5.2 0.00 0.75 0.75 91 1012.9
20260506172133 54 83 2.6 5.2 0.00 0.75 0.75 92 1012.9
20260506171630 53 68 2.6 2.6 0.00 0.75 0.75 94 1013.1
20260506171128 52 95 2.6 6.1 0.00 0.75 0.75 94 1012.9
20260506170626 52 140 3.5 7.0 0.00 0.75 0.75 95 1012.9
20260506170122 53 93 3.5 5.2 0.00 0.75 0.75 95 1012.9
20260506165621 53 88 5.2 7.0 0.00 0.75 0.75 95 1012.9
20260506165117 53 52 2.6 6.1 0.00 0.75 0.75 96 1012.8
20260506164614 53 92 5.2 7.0 0.00 0.75 0.75 96 1012.7
20260506164112 54 127 2.6 7.8 0.00 0.75 0.75 97 1012.8
20260506163608 53 19 3.5 5.2 0.00 0.75 0.75 98 1012.7
20260506163103 54 70 3.5 5.2 0.00 0.75 0.75 98 1012.8
20260506162559 53 58 3.5 5.2 0.00 0.75 0.75 98 1012.7
20260506162057 53 52 5.2 7.0 0.00 0.75 0.75 98 1012.7
20260506161554 54 62 2.6 3.5 0.00 0.75 0.75 98 1012.5
20260506161051 54 46 4.3 5.2 0.00 0.75 0.75 98 1012.4
20260506160549 54 72 3.5 6.1 0.00 0.75 0.75 98 1012.1
20260506160045 54 54 5.2 6.1 0.00 0.75 0.75 99 1012.1
20260506155544 54 62 4.3 5.2 0.00 0.75 0.75 99 1012.1
20260506153715 53 67 0.9 1.7 0.00 0.75 0.75 99 1011.7
20260506153213 53 67 0.9 1.7 0.00 0.75 0.75 99 1011.7
20260506152709 52 133 0.9 1.7 0.00 0.75 0.75 99 1011.8
20260506152207 52 93 1.7 2.6 0.00 0.75 0.75 99 1011.6
20260506151706 53 116 0.9 3.5 0.00 0.75 0.75 99 1011.5
20260506151202 53 116 0.9 3.5 0.00 0.75 0.75 99 1011.5
20260506150659 52 115 0.9 2.6 0.00 0.75 0.75 99 1011.6
20260506150156 53 126 0.9 2.6 0.00 0.75 0.75 99 1011.5
20260506145653 52 122 2.6 5.2 0.00 0.75 0.75 99 1011.4
20260506145149 53 114 4.3 5.2 0.00 0.75 0.75 99 1011.2
20260506144647 53 123 1.7 2.6 0.00 0.75 0.75 99 1011.3
20260506144144 54 108 3.5 5.2 0.00 0.75 0.75 99 1011.2
20260506143641 54 108 3.5 5.2 0.00 0.75 0.75 99 1011.2
20260506143139 54 69 2.6 6.1 0.00 0.75 0.75 99 1010.9
20260506142638 55 141 0.9 6.1 0.00 0.75 0.75 99 1010.8
20260506142135 55 106 4.3 11.3 0.07 0.75 0.75 99 1010.5
20260506141632 57 74 7.8 12.2 0.14 0.75 0.75 99 1010.4
20260506141131 59 58 3.5 5.2 0.07 0.74 0.74 99 1009.7
20260506140628 59 117 0.0 0.9 0.00 0.73 0.73 99 1009.5
20260506140125 59 6 0.0 0.9 0.00 0.73 0.73 99 1009.3
20260506135622 59 73 0.9 1.7 0.00 0.73 0.73 99 1009.4
20260506135118 59 45 1.7 1.7 0.00 0.73 0.73 99 1009.3
20260506134615 58 71 0.0 2.6 0.00 0.73 0.73 99 1009.3
20260506134110 58 46 0.9 1.7 0.00 0.73 0.73 99 1009.3
20260506133608 58 154 0.0 2.6 0.00 0.73 0.73 99 1009.2
20260506133105 59 50 0.9 1.7 0.00 0.73 0.73 99 1009.1
20260506132602 58 49 0.0 1.7 0.00 0.73 0.73 99 1009.0
20260506132059 58 16 0.0 1.7 0.05 0.73 0.73 99 1008.9
20260506131556 58 224 0.0 2.6 0.05 0.73 0.73 99 1009.1
20260506131052 58 53 0.0 0.0 0.00 0.72 0.72 99 1009.2
20260506130549 58 34 1.7 2.6 0.00 0.72 0.72 99 1009.2
20260506130047 58 252 0.9 0.9 0.00 0.72 0.72 99 1009.0
20260506125545 58 25 0.0 1.7 0.00 0.72 0.72 99 1009.0
20260506125043 58 283 0.9 0.9 0.00 0.72 0.72 99 1008.9
20260506124540 58 220 0.0 1.7 0.00 0.72 0.72 99 1009.0
20260506124038 58 163 0.0 1.7 0.00 0.72 0.72 99 1009.0
20260506123535 58 234 0.0 1.7 0.00 0.72 0.72 99 1008.9
20260506123034 58 250 0.9 0.9 0.00 0.72 0.72 99 1008.9
20260506122530 57 48 0.0 2.6 0.00 0.72 0.72 99 1008.8
20260506122028 57 52 1.7 1.7 0.00 0.72 0.72 99 1009.0
20260506121525 57 209 0.9 0.9 0.00 0.72 0.72 99 1009.0
20260506121021 57 186 0.0 1.7 0.00 0.72 0.72 99 1009.0
20260506120520 57 53 1.7 5.2 0.00 0.72 0.72 99 1009.1
20260506120017 57 76 0.0 0.9 0.00 0.72 0.72 99 1009.0
20260506115514 57 122 0.0 0.9 0.07 0.72 0.72 99 1008.9
20260506115013 57 185 0.0 0.9 0.07 0.72 0.72 99 1008.7
20260506114510 57 210 0.0 2.6 0.00 0.71 0.71 99 1008.8
20260506114008 57 228 0.0 2.6 0.00 0.71 0.71 99 1008.8
20260506113506 57 206 0.0 0.9 0.00 0.71 0.71 99 1008.9
20260506113003 57 178 0.0 0.9 0.00 0.71 0.71 99 1008.7
20260506112459 57 249 0.9 2.6 0.05 0.71 0.71 99 1008.6
20260506111956 57 46 0.0 0.0 0.05 0.71 0.71 99 1008.7
20260506111455 57 138 0.0 0.0 0.00 0.70 0.70 98 1008.5
20260506110951 57 176 0.0 0.0 0.07 0.70 0.70 98 1008.6
20260506110449 57 118 0.0 0.0 0.05 0.69 0.69 98 1008.7
20260506105945 57 217 0.0 0.9 0.12 0.69 0.69 98 1008.5
20260506105442 57 78 0.0 0.0 0.19 0.68 0.68 98 1008.4
20260506104939 57 123 0.0 0.9 0.17 0.67 0.67 98 1008.5
20260506104437 57 139 0.0 0.0 0.19 0.65 0.65 98 1008.5
20260506103935 57 77 0.0 0.9 0.12 0.63 0.63 98 1008.5
20260506103432 57 287 0.0 0.9 0.07 0.61 0.61 98 1008.5
20260506102929 57 159 0.0 0.9 0.05 0.60 0.60 98 1008.4
20260506102427 57 168 0.0 0.0 0.12 0.60 0.60 98 1008.5
20260506101924 57 98 0.0 0.0 0.19 0.59 0.59 98 1008.6
20260506101420 57 102 0.0 0.9 0.24 0.58 0.58 97 1008.5
20260506100918 57 48 0.0 0.9 0.17 0.56 0.56 97 1008.8
20260506100416 57 255 0.0 0.0 0.12 0.54 0.54 97 1008.6
20260506095914 57 255 0.9 0.9 0.19 0.53 0.53 97 1008.6
20260506095412 57 60 0.9 0.9 0.19 0.52 0.52 97 1008.9
20260506094908 57 58 0.0 0.9 0.24 0.50 0.50 97 1008.5
20260506094407 57 150 0.0 0.0 0.17 0.49 0.49 97 1008.7
20260506093904 57 150 0.0 0.0 0.07 0.46 0.46 97 1008.8
20260506093402 57 147 0.0 0.0 0.07 0.46 0.46 97 1008.7
20260506092859 57 78 0.0 0.9 0.12 0.45 0.45 97 1008.7
20260506092357 57 255 0.9 1.7 0.19 0.44 0.44 96 1008.7
20260506091853 57 269 0.0 0.9 0.24 0.43 0.43 96 1008.7
20260506091352 57 67 0.0 0.0 0.24 0.41 0.41 96 1008.8
20260506090848 57 82 0.0 0.0 0.19 0.39 0.39 96 1008.8
20260506090346 57 48 0.0 2.6 0.31 0.37 0.37 96 1008.9
20260506085842 57 56 0.9 1.7 0.35 0.36 0.36 96 1008.8
20260506085338 57 36 0.0 2.6 0.17 0.32 0.32 96 1008.6
20260506084835 57 55 0.0 2.6 0.17 0.30 0.30 96 1008.8
20260506084332 57 102 0.0 0.0 0.31 0.28 0.28 95 1008.6
20260506083829 57 247 0.9 1.7 0.38 0.27 0.27 95 1009.0
20260506083326 57 249 0.0 0.0 0.17 0.23 0.23 95 1009.1
20260506082824 57 51 0.0 1.7 0.17 0.21 0.21 95 1009.0
20260506082320 57 135 0.0 0.0 0.24 0.19 0.19 94 1009.2
20260506081816 58 183 0.0 0.0 0.31 0.17 0.17 94 1009.4
20260506081314 58 243 0.0 2.6 0.31 0.15 0.15 94 1009.1
20260506080811 58 107 0.0 0.0 0.28 0.12 0.12 93 1009.3
20260506080307 58 35 0.9 2.6 0.31 0.09 0.09 93 1009.3
20260506073246 59 73 0.0 0.0 0.00 0.01 0.01 88 1008.9
20260506072743 59 65 0.9 1.7 0.00 0.01 0.01 88 1008.9
20260506072241 59 225 0.9 0.9 0.00 0.01 0.01 89 1008.8
20260506071738 59 65 0.0 0.9 0.07 0.01 0.01 90 1008.8
20260506071236 59 99 0.0 0.0 0.07 0.01 0.01 92 1009.2
20260506070733 58 31 0.0 0.9 0.00 0.00 0.00 94 1008.8
20260506070230 57 92 0.0 2.6 0.00 0.00 0.00 95 1009.0
20260506062206 58 196 0.0 0.0 0.00 0.00 0.00 94 1008.5
20260506061656 58 196 0.0 0.0 0.00 0.00 0.00 94 1008.9
20260506061153 58 196 0.0 0.0 0.00 0.00 0.00 94 1008.7
20260506060653 58 196 0.0 0.0 0.00 0.00 0.00 94 1009.0
20260506060149 58 196 0.0 0.0 0.00 0.00 0.00 94 1009.0
20260506051121 59 67 0.0 0.0 0.00 0.00 0.00 90 1009.9
20260506050619 58 66 0.0 0.0 0.00 0.00 0.00 90 1009.8
20260506050116 59 65 0.0 0.0 0.00 0.00 0.00 90 1009.9
20260506045109 59 177 0.0 0.0 0.00 0.00 0.00 89 1009.9
20260506044607 58 72 0.0 0.0 0.00 0.00 0.00 90 1010.0
20260506044104 58 212 0.0 0.0 0.00 0.00 0.00 89 1010.2
20260506043601 58 213 0.0 0.0 0.00 0.00 0.00 89 1009.9
20260506043100 59 213 0.0 0.0 0.00 0.00 0.00 89 1009.8
20260506042558 58 213 0.0 0.0 0.00 0.00 0.00 89 1009.8
20260506042056 59 213 0.0 0.0 0.00 0.00 0.00 89 1009.9
20260506041554 59 213 0.0 0.0 0.00 0.00 0.00 89 1009.8
20260506041050 59 215 0.0 0.0 0.00 0.00 0.00 89 1009.8
20260506040549 59 210 0.0 0.0 0.00 0.00 0.00 88 1009.9
20260506040044 59 210 0.0 0.0 0.00 0.00 0.00 87 1010.0
20260506035541 59 210 0.0 0.0 0.00 0.00 0.00 86 1009.9
20260506035038 60 210 0.0 0.0 0.00 0.00 0.00 85 1010.0
20260506034535 60 256 0.0 0.0 0.00 0.00 0.00 84 1010.2
20260506034032 60 249 0.0 0.0 0.00 0.00 0.00 83 1010.2
20260506033529 61 57 0.0 0.9 0.00 0.00 0.00 82 1010.3
20260506033026 61 33 1.7 1.7 0.00 0.00 0.00 80 1009.9
20260506032524 61 74 0.0 0.9 0.00 0.00 0.00 77 1009.7
20260506032020 61 196 0.0 0.0 0.00 0.00 0.00 76 1009.8
20260506031518 62 195 0.9 1.7 0.00 0.00 0.00 77 1009.7
20260506031015 62 199 0.0 0.9 0.00 0.00 0.00 76 1010.2
20260506030513 63 318 0.0 0.9 0.00 0.00 0.00 67 1010.4
20260506030010 63 34 0.0 0.0 0.00 0.00 0.00 66 1010.4
20260506025506 63 26 0.0 0.0 0.00 0.00 0.00 66 1010.4
20260506025003 64 55 0.0 0.0 0.00 0.00 0.00 68 1010.5
20260506024459 64 32 0.0 0.0 0.00 0.00 0.00 67 1010.4
20260506023955 64 64 0.0 0.0 0.00 0.00 0.00 65 1010.3
20260506023452 64 37 1.7 1.7 0.00 0.00 0.00 67 1010.3